TIME,DELAY(SENSOR),PRES,OXYGEN,RAWTEMP,T(OPTODE),TCPHASE,FLUOR,BETA(BETA700),BETA(BETA412),BETA(BETA440),CDOM,C(CSC),ED(ED411.90),ED(ED443.80),ED(ED489.40),ED(ED554.70),LU(LU412.20),LU(LU443.80),LU(LU489.40),LU(LU555.00),COMP,TILTX,TILTY,CHECK
1350515534,5804,872.2399902343750000,168.9987945556640600,459.3602905273437500,9.1470127105712890,39.8426589965820300,50,95,55,79,54,476,2147450340,2147792987,2147579081,2147821174,2147308178,2147454473,2147753234,2148271561,3364,6,14,22631
1350519130,5804,900.0000000000000000,206.2561035156250000,520.0180053710938000,7.2521328926086430,38.4377708435058600,50,92,53,78,55,472,2147440713,2147794550,2147583808,2147830226,2147308982,2147454866,2147764873,2148279286,275,6,14,48979
1350522730,5803,1054.0000000000000000,214.4062957763672000,527.6066284179688000,7.0133252143859860,38.0957183837890600,50,90,55,79,57,467,2147438427,2147799597,2147585664,2147831003,2147308690,2147450194,2147768969,2148282432,3340,6,14,6976
1350526330,5806,1046.0000000000000000,217.4757995605468800,529.7905273437500000,6.9445190429687500,37.9592399597168000,50,90,53,79,55,466,2147439872,2147795483,2147589924,2147831661,2147306797,2147446921,2147764434,2148281581,398,6,14,6094
1350529930,5801,1089.0000000000000000,218.8128051757812500,532.4498901367188000,6.8606829643249510,37.9322395324707000,50,92,55,78,55,464,2147435154,2147798363,2147588260,2147833581,2147307986,2147453997,2147766134,2148279753,3210,6,15,28274
1350533530,5804,1038.0000000000000000,221.1891937255859400,533.1179199218750000,6.8396191596984860,37.8113594055175800,50,91,54,78,56,463,2147439524,2147801572,2147590528,2147831552,2147304411,2147447003,2147763428,2148280100,151,6,14,40471
1350537130,5805,11.8999996185302730,220.6360015869140600,533.3336791992188000,6.8328108787536620,37.8450317382812500,50,92,55,80,56,463,2147437238,2147800777,2147586660,2147828461,2147306048,2147450368,2147767725,2148282002,268,6,14,13209
1350540730,5806,1004.0000000000000000,220.5137939453125000,532.9385986328125000,6.8452720642089840,37.8454208374023440,50,93,55,77,56,461,2147437110,2147802432,2147586349,2147831067,2147307840,2147454308,2147764909,2148282532,33,6,14,36352
1350544330,5802,1231.0000000000000000,219.2969970703125000,532.2750854492188000,6.8661937713623050,37.9018096923828100,50,92,53,79,56,459,2147433974,2147801289,2147587721,2147832466,2147304576,2147446683,2147763968,2148278710,3585,6,15,17491
1350547930,5804,1226.0000000000000000,219.8753051757812500,533.2960205078125000,6.8340001106262210,37.8872413635253900,50,89,54,79,57,458,2147437174,2147802194,2147586944,2147830555,2147306020,2147447652,2147763419,2148283410,3125,6,14,11041
1350551530,5805,1017.0000000000000000,217.9922943115234400,533.4456787109375000,6.8292789459228520,37.9959106445312500,50,90,54,81,57,457,2147434084,2147800411,2147588736,2147831780,2147306459,2147450916,2147761636,2148278537,3534,6,15,17924
1350555130,5805,1257.0000000000000000,218.8291015625000000,533.2321777343750000,6.8360137939453125,37.9450416564941400,50,92,56,79,55,457,2147435126,2147794093,2147587428,2147828818,2147305014,2147450614,2147768941,2148279387,371,6,15,20328
1350558730,5806,11.1000003814697270,220.7295074462890600,534.9874877929688000,6.7806382179260250,37.8701400756835940,50,92,55,79,56,455,2147432548,2147797394,2147584393,2147833042,2147309476,2147449993,2147764489,2148280146,80,6,14,3306
1350562330,5807,1002.0000000000000000,221.7064971923828000,535.1715698242188000,6.7748317718505860,37.8193283081054700,50,90,54,78,55,454,2147439698,2147798848,2147586971,2147831286,2147306596,2147454491,2147763702,2148282413,39,6,14,22294
1350565930,5807,1002.0000000000000000,221.8462066650390600,535.2285156250000000,6.7730350494384770,37.8125190734863300,50,91,56,78,56,454,2147435053,2147798838,2147588690,2147831716,2147303478,2147450468,2147766025,2148281947,87,6,14,28555
1350569530,5806,1217.0000000000000000,222.1226959228515600,535.3062133789062000,6.7705841064453125,37.7983894348144500,50,93,54,77,55,455,2147433819,2147797366,2147588077,2147834450,2147305718,2147448950,2147764516,2148279314,357,6,14,11864
1350573130,5804,12.5000000000000000,221.5000000000000000,534.9063110351562000,6.7832012176513670,37.8255500793457000,50,92,55,78,55,455,2147435410,2147798162,2147584658,2147831488,2147306733,2147446400,2147767917,2148279323,357,6,15,44537
1350576730,5804,10.3999996185302730,221.9125976562500000,534.9038696289062000,6.7832779884338380,37.8029785156250000,50,91,56,78,56,456,2147440018,2147797421,2147589129,2147831798,2147303716,2147448484,2147760384,2148282934,511,6,14,10273
1350580330,5803,12.6999998092651370,221.9028930664062500,535.2440795898438000,6.7725410461425780,37.8096618652343750,50,90,55,107,55,456,2147433014,2147797275,2147584594,2147833398,2147307712,2147450486,2147764900,2148282614,481,6,14,62200
1350583930,5804,1231.0000000000000000,221.6699066162109400,535.9392089843750000,6.7506070137023930,37.8347091674804700,50,91,55,78,56,457,2147434258,2147798354,2147587410,2147831241,2147303524,2147448758,2147760155,2148279268,351,6,14,40844
1350587530,5805,1270.0000000000000000,222.8778991699218800,536.1602783203125000,6.7436289787292480,37.7716484069824200,51,93,55,78,56,456,2147433600,2147799552,2147587382,2147832566,2147304018,2147451218,2147762642,2148281444,406,6,14,27557
1350591130,5806,12.8000001907348630,221.8108978271484400,536.1397094726562000,6.7442779541015625,37.8301506042480500,50,93,55,79,56,458,2147433782,2147796800,2147588845,2147831625,2147305453,2147451904,2147765531,2148278811,174,6,14,44978
1350594730,5804,12.5000000000000000,222.5648040771484400,536.7996215820312000,6.7234520912170410,37.8003196716308600,50,95,55,77,56,461,2147435017,2147797915,2147583853,2147833389,2147306596,2147447332,2147765284,2148280228,3126,6,15,35099
1350598330,5805,1194.0000000000000000,224.2586975097656200,538.1898193359375000,6.6795601844787600,37.7319984436035160,50,91,57,78,56,463,2147438354,2147795712,2147586596,2147832082,2147308964,2147452315,2147766784,2148281408,3136,6,15,26456
1350601930,5806,1028.0000000000000000,224.9786071777343800,538.4702148437500000,6.6707057952880860,37.6977996826171900,50,91,56,77,56,464,2147434861,2147801325,2147587163,2147830793,2147307337,2147451373,2147763684,2148280795,157,6,14,44527
1350605530,5805,1077.0000000000000000,223.6622009277343800,537.0994262695312000,6.7139868736267090,37.7457389831543000,50,91,57,77,56,462,2147439186,2147798528,2147585024,2147832274,2147304329,2147451099,2147763794,2148282093,3232,6,14,47574
1350609130,5801,1087.0000000000000000,221.7330017089843800,536.3629760742188000,6.7372298240661620,37.8394203186035160,50,91,57,79,55,463,2147433792,2147798994,2147589504,2147831085,2147307126,2147448603,2147766080,2148281965,2746,6,14,46650
1350612730,5805,1084.0000000000000000,222.1690063476562500,536.1575927734375000,6.7437129020690920,37.8109512329101560,50,93,56,78,56,464,2147432740,2147800237,2147587355,2147830189,2147304630,2147447789,2147765348,2148281554,278,6,14,40431
1350616330,5804,12.8999996185302730,222.4792938232422000,536.6954956054688000,6.7267360687255860,37.8030014038085940,50,93,57,77,57,465,2147438262,2147798976,2147586678,2147830976,2147304886,2147449179,2147763209,2148279990,3529,6,14,61354
1350619930,5804,13.0000000000000000,223.1925964355468800,536.4520874023438000,6.7344188690185550,37.7602882385253900,50,91,57,78,55,464,2147434998,2147796790,2147585664,2147834230,2147305618,2147451392,2147766976,2148280128,3531,6,14,53655
1350623530,5802,1333.0000000000000000,221.7286987304687500,535.0921020507812000,6.7773399353027340,37.8167190551757800,50,91,58,79,55,466,2147431552,2147798381,2147586724,2147833051,2147303113,2147448932,2147761024,2148283593,272,6,15,11820
1350627130,5802,1050.0000000000000000,220.8450927734375000,534.3839111328125000,6.7996830940246580,37.8526802062988300,50,93,59,78,55,467,2147435245,2147798189,2147582756,2147830582,2147308498,2147450112,2147767040,2148279195,3476,6,15,10763
1350630730,5805,12.8000001907348630,218.2290954589843800,533.4505004882812000,6.8291258811950680,37.9827919006347660,50,92,58,78,57,469,2147435291,2147799186,2147583643,2147827163,2147305188,2147447826,2147763410,2148279981,3124,6,14,55596
1350634330,5804,1019.0000000000000000,218.6750030517578000,533.2260742187500000,6.8362050056457520,37.9537391662597660,50,95,59,79,56,471,2147433737,2147797248,2147587300,2147831451,2147307565,2147450514,2147764105,2148283638,3465,6,15,35261
1350637930,5805,1013.0000000000000000,218.3085021972656200,533.4611206054688000,6.8287930488586430,37.9785804748535160,50,93,59,78,57,473,2147436800,2147797888,2147586038,2147836397,2147309312,2147451510,2147765787,2148285083,3287,6,15,32907
1350641530,5803,11.0000000000000000,218.8305969238281200,533.7175292968750000,6.8207039833068850,37.9532203674316400,50,91,59,79,55,474,2147435977,2147798025,2147586825,2147831442,2147309860,2147453485,2147766418,2148284342,3313,6,14,53221
1350645130,5806,11.1999998092651370,220.1757965087890600,535.4489746093750000,6.7660751342773440,37.9089393615722660,50,93,60,79,56,477,2147436251,2147801618,2147586066,2147833910,2147307657,2147445339,2147768009,2148279433,569,6,14,2981
1350648730,5804,10.8999996185302730,222.5092926025390600,536.0733032226562000,6.7463741302490230,37.7902297973632800,50,91,61,79,55,478,2147438308,2147798738,2147584896,2147835328,2147308854,2147451968,2147766528,2148281243,75,6,14,62560
1350652330,5804,1090.0000000000000000,222.3146057128906200,536.0255737304688000,6.7478790283203125,37.8007202148437500,50,92,59,77,56,480,2147436361,2147799908,2147585280,2147834276,2147305462,2147450240,2147761664,2148282541,3053,6,15,43584
1350654056,5804,11.0000000000000000,221.2427978515625000,535.2249145507812000,6.7731480598449710,37.8459396362304700,50,91,60,78,56,480,2147439808,2147798409,2147585636,2147828726,2147308544,2147450304,2147766747,2148283364,3442,6,14,51824
